Midland City, AL

3:42 PM CST on February 14, 2016 (GMT -0600)
Dothan Regional

Weather History for KDHN - March, 2014

Change the Weather History Date:

Wednesday, March 26, 2014

  Actual Average Record
Temperature  
Mean Temperature 45 °F 61 °F  
Max Temperature 58 °F 73 °F 87 °F (1948)
Min Temperature 32 °F 48 °F 30 °F (1955)
Degree Days  
Heating Degree Days 20 5  
Month to date heating degree days 236 187  
Since 1 July heating degree days 1901 1746  
Cooling Degree Days 0 1  
Month to date cooling degree days 2 25  
Year to date cooling degree days 11 35  
Moisture  
Dew Point 21 °F    
Average Humidity 42    
Maximum Humidity 66    
Minimum Humidity 20    
Precipitation  
Precipitation 0.00 in 0.24 in 1.86 in (1946)
Month to date precipitation 2.70 4.66  
Year to date precipitation 10.43 14.06  
Sea Level Pressure  
Sea Level Pressure 30.33 in    
Wind  
Wind Speed 6 mph (NNE)    
Max Wind Speed 13 mph    
Max Gust Speed 20 mph    
Visibility 10 miles    
Events      
T = Trace of Precipitation, MM = Missing Value Source: NWS Daily Summary

Daily Weather History Graph

Daily Weather History Graph

Search for Another Location

Airport or City:

Trip Planner

Search our weather history database for the weather conditions in past years. The results will help you decide how hot, cold, wet, or windy it might be!

Date:

Astronomy

Mar. 26, 2014 Rise Set
Actual Time 6:38 AM CDT 6:57 PM CDT
Civil Twilight 6:13 AM CDT 7:21 PM CDT
Nautical Twilight 5:45 AM CDT 7:49 PM CDT
Astronomical Twilight 5:16 AM CDT 8:18 PM CDT
Moon 3:29 AM CDT (3/26) 2:49 PM CDT (3/26)
Length of Visible Light 13h 07m
Length of Day
12h 19m
Waning Crescent, 21% of the Moon is Illuminated
Mar 26
Waning Crescent
Mar 30
New
Apr 7
First Quarter
Apr 15
Full
Apr 22
Last Quarter

Hourly Weather History & Observations

Time (CDT) Temp. Windchill Dew Point Humidity Pressure Visibility Wind Dir Wind Speed Gust Speed Precip Events Conditions
12:53 AM 41.0 °F 37.1 °F 21.0 °F 45% 30.27 in 10.0 mi North 5.8 mph - N/A   Clear
1:53 AM 37.9 °F 34.4 °F 23.0 °F 55% 30.28 in 10.0 mi North 4.6 mph - N/A   Clear
2:53 AM 37.0 °F 33.3 °F 23.0 °F 57% 30.29 in 10.0 mi NW 4.6 mph - N/A   Clear
3:53 AM 35.1 °F 30.1 °F 23.0 °F 61% 30.30 in 10.0 mi NW 5.8 mph - N/A   Clear
4:53 AM 34.0 °F 28.8 °F 23.0 °F 64% 30.31 in 10.0 mi North 5.8 mph - N/A   Clear
5:53 AM 33.1 °F 28.7 °F 23.0 °F 66% 30.33 in 10.0 mi North 4.6 mph - N/A   Clear
6:53 AM 33.1 °F 30.0 °F 21.9 °F 64% 30.36 in 10.0 mi NNE 3.5 mph - N/A   Clear
7:53 AM 37.9 °F 32.7 °F 21.9 °F 53% 30.38 in 10.0 mi NE 6.9 mph - N/A   Clear
8:53 AM 42.1 °F 35.2 °F 18.0 °F 38% 30.40 in 10.0 mi NE 12.7 mph - N/A   Clear
9:53 AM 46.0 °F 40.2 °F 16.0 °F 30% 30.40 in 10.0 mi NE 12.7 mph 19.6 mph N/A   Clear
10:53 AM 48.9 °F - 16.0 °F 27% 30.41 in 10.0 mi NNE 10.4 mph 17.3 mph N/A   Clear
11:53 AM 50.0 °F - 15.1 °F 25% 30.40 in 10.0 mi Calm Calm - N/A   Clear
12:53 PM 53.1 °F - 15.1 °F 22% 30.38 in 10.0 mi North 8.1 mph - N/A   Clear
1:53 PM 55.9 °F - 16.0 °F 21% 30.34 in 10.0 mi North 9.2 mph 17.3 mph N/A   Clear
2:53 PM 57.0 °F - 16.0 °F 20% 30.31 in 10.0 mi NNE 9.2 mph - N/A   Clear
3:53 PM 57.0 °F - 16.0 °F 20% 30.30 in 10.0 mi NE 10.4 mph - N/A   Clear
4:53 PM 55.9 °F - 16.0 °F 21% 30.29 in 10.0 mi Calm Calm - N/A   Clear
5:53 PM 55.9 °F - 19.0 °F 24% 30.28 in 10.0 mi Calm Calm - N/A   Clear
6:53 PM 53.1 °F - 26.1 °F 35% 30.28 in 10.0 mi Calm Calm - N/A   Clear
7:53 PM 50.0 °F - 26.1 °F 39% 30.30 in 10.0 mi ESE 3.5 mph - N/A   Clear
8:53 PM 48.9 °F - 26.1 °F 41% 30.30 in 10.0 mi Calm Calm - N/A   Clear
9:53 PM 45.0 °F 42.6 °F 30.9 °F 58% 30.30 in 10.0 mi SSE 4.6 mph - N/A   Clear
10:53 PM 42.1 °F - 30.9 °F 65% 30.29 in 10.0 mi Calm Calm - N/A   Clear
11:53 PM 43.0 °F 40.3 °F 30.9 °F 62% 30.30 in 10.0 mi SSE 4.6 mph - N/A   Clear